When you browse on this site, cookies collect data to enhance your experience and personalize the content and advertising you see.
Visit our Privacy Policy to learn more. By continuing to use the site, you agree to this use of cookies and data.
  • In Switzerland
  • List of Countries
  • For 7 days
  • Water Temperature
  • Weather Map
  • Weather Widgets
  • user-avatar
    Login

    Hourly Weather Hobart

    Today, 22 February, Saturday

    Time Temperature Precipitation Wind Pressure Humidity
    00:00 +7°C° 0 mm 2 mps 754 mmHg 82%
    01:00 +7°C° 0 mm 2 mps 754 mmHg 84%
    02:00 +6°C° 0 mm 2 mps 754 mmHg 85%
    03:00 +6°C° 0 mm 2 mps 754 mmHg 87%
    04:00 +6°C° 0 mm 2 mps 753 mmHg 89%
    05:00 +7°C° 0 mm 1 mps 754 mmHg 85%
    06:00 +8°C° 0 mm 1 mps 754 mmHg 82%
    07:00 +9°C° 0 mm 1 mps 755 mmHg 78%
    08:00 +12°C° 0 mm 1 mps 754 mmHg 66%
    09:00 +15°C° 0 mm 1 mps 754 mmHg 54%
    10:00 +19°C° 0 mm 1 mps 754 mmHg 42%
    11:00 +21°C° 0 mm 1 mps 754 mmHg 39%
    12:00 +22°C° 0 mm 1 mps 754 mmHg 36%
    13:00 +24°C° 0 mm 1 mps 754 mmHg 33%
    14:00 +23°C° 0 mm 2 mps 753 mmHg 36%
    15:00 +21°C° 0 mm 2 mps 753 mmHg 40%
    16:00 +20°C° 0 mm 3 mps 752 mmHg 44%
    17:00 +18°C° 0 mm 3 mps 753 mmHg 55%
    18:00 +16°C° 0 mm 2 mps 753 mmHg 65%
    19:00 +14°C° 0 mm 2 mps 753 mmHg 75%
    20:00 +13°C° 0 mm 1 mps 753 mmHg 80%
    21:00 +12°C° 0 mm 1 mps 754 mmHg 86%
    22:00 +11°C° 0 mm 1 mps 754 mmHg 91%
    23:00 +11°C° 0 mm 1 mps 754 mmHg 91%

    Tomorrow, 23 February, Sunday

    Time Temperature Precipitation Wind Pressure Humidity
    00:00 +10°C° 0 mm 1 mps 753 mmHg 92%
    01:00 +10°C° 0 mm 1 mps 753 mmHg 93%
    02:00 +10°C° 0 mm 1 mps 753 mmHg 94%
    03:00 +10°C° 0 mm 1 mps 753 mmHg 95%
    04:00 +10°C° 0 mm 1 mps 753 mmHg 95%
    05:00 +10°C° 0 mm 1 mps 753 mmHg 92%
    06:00 +11°C° 0 mm 1 mps 753 mmHg 88%
    07:00 +11°C° 0 mm 1 mps 753 mmHg 84%
    08:00 +14°C° 0 mm 1 mps 753 mmHg 73%
    09:00 +18°C° 0 mm 1 mps 752 mmHg 61%
    10:00 +21°C° 0 mm 1 mps 752 mmHg 50%
    11:00 +23°C° 0 mm 1 mps 751 mmHg 45%
    12:00 +24°C° 0 mm 2 mps 751 mmHg 41%
    13:00 +26°C° 0 mm 2 mps 750 mmHg 36%
    14:00 +25°C° 0 mm 2 mps 750 mmHg 42%
    15:00 +24°C° 0 mm 3 mps 749 mmHg 47%
    16:00 +22°C° 0 mm 4 mps 748 mmHg 53%
    17:00 +20°C° 0 mm 4 mps 748 mmHg 63%
    18:00 +17°C° 0 mm 3 mps 748 mmHg 73%
    19:00 +14°C° 0 mm 3 mps 748 mmHg 83%
    20:00 +14°C° 0 mm 2 mps 749 mmHg 85%
    21:00 +14°C° 0 mm 2 mps 749 mmHg 86%
    22:00 +13°C° 0 mm 1 mps 750 mmHg 88%
    23:00 +13°C° 0 mm 1 mps 750 mmHg 90%

    Day after tomorrow, 24 February, Monday

    Time Temperature Precipitation Wind Pressure Humidity
    00:00 +13°C° 0 mm 1 mps 750 mmHg 92%
    01:00 +12°C° 0 mm 1 mps 749 mmHg 94%
    02:00 +12°C° 0 mm 1 mps 749 mmHg 94%
    03:00 +13°C° 0 mm 1 mps 749 mmHg 93%
    04:00 +13°C° 0 mm 1 mps 749 mmHg 92%
    05:00 +13°C° 0 mm 1 mps 750 mmHg 90%
    06:00 +14°C° 0 mm 1 mps 750 mmHg 87%
    07:00 +13°C° 0 mm 0 mps 750 mmHg 84%
    08:00 +18°C° 0 mm 1 mps 750 mmHg 73%
    09:00 +20°C° 0 mm 1 mps 750 mmHg 61%
    10:00 +23°C° 0 mm 1 mps 751 mmHg 50%
    11:00 +23°C° 0 mm 1 mps 750 mmHg 51%
    12:00 +22°C° 0 mm 1 mps 750 mmHg 52%
    13:00 +21°C° 0 mm 2 mps 750 mmHg 53%
    14:00 +21°C° 0 mm 2 mps 750 mmHg 56%
    15:00 +20°C° 0 mm 2 mps 749 mmHg 60%
    16:00 +20°C° 0 mm 2 mps 749 mmHg 64%
    17:00 +19°C° 0 mm 2 mps 749 mmHg 71%
    18:00 +17°C° 0 mm 2 mps 749 mmHg 79%
    19:00 +16°C° 0 mm 2 mps 749 mmHg 87%
    20:00 +15°C° 0 mm 1 mps 749 mmHg 90%
    21:00 +15°C° 0 mm 1 mps 749 mmHg 92%
    22:00 +13°C° 0 mm 0 mps 749 mmHg 94%
    23:00 +13°C° 0 mm 0 mps 749 mmHg 95%

    25 February, Tuesday

    Time Temperature Precipitation Wind Pressure Humidity
    00:00 +13°C° 0 mm 1 mps 748 mmHg 96%
    01:00 +13°C° 0 mm 1 mps 747 mmHg 96%
    02:00 +13°C° 0 mm 1 mps 747 mmHg 96%
    03:00 +13°C° 0 mm 1 mps 746 mmHg 96%
    04:00 +13°C° 0 mm 1 mps 746 mmHg 96%
    05:00 +13°C° 0 mm 1 mps 746 mmHg 93%
    06:00 +13°C° 0 mm 1 mps 745 mmHg 90%
    07:00 +14°C° 0 mm 1 mps 745 mmHg 88%
    08:00 +16°C° 0 mm 2 mps 745 mmHg 71%
    09:00 +19°C° 0 mm 2 mps 744 mmHg 55%
    10:00 +23°C° 0 mm 2 mps 744 mmHg 39%
    11:00 +25°C° 0 mm 3 mps 743 mmHg 35%
    12:00 +26°C° 0 mm 3 mps 742 mmHg 32%
    13:00 +28°C° 0 mm 3 mps 741 mmHg 28%
    14:00 +27°C° 0 mm 3 mps 740 mmHg 30%
    15:00 +27°C° 0 mm 3 mps 739 mmHg 31%
    16:00 +26°C° 0 mm 3 mps 738 mmHg 33%
    17:00 +24°C° 0 mm 3 mps 738 mmHg 41%
    18:00 +20°C° 0 mm 3 mps 738 mmHg 49%
    19:00 +18°C° 0 mm 2 mps 737 mmHg 56%
    20:00 +16°C° 0 mm 3 mps 737 mmHg 62%
    21:00 +14°C° 0 mm 3 mps 737 mmHg 68%
    22:00 +13°C° 0 mm 3 mps 737 mmHg 74%
    23:00 +12°C° 0.1 mm 4 mps 736 mmHg 75%

    26 February, Wednesday

    Time Temperature Precipitation Wind Pressure Humidity
    00:00 +12°C° 0.1 mm 4 mps 736 mmHg 77%
    01:00 +12°C° 0.1 mm 4 mps 736 mmHg 79%
    02:00 +11°C° 0.4 mm 4 mps 736 mmHg 81%
    03:00 +10°C° 0.4 mm 4 mps 736 mmHg 83%
    04:00 +8°C° 0.4 mm 4 mps 736 mmHg 85%
    05:00 +8°C° 0 mm 4 mps 736 mmHg 83%
    06:00 +8°C° 0 mm 4 mps 737 mmHg 80%
    07:00 +8°C° 0 mm 4 mps 737 mmHg 78%
    08:00 +8°C° 0.1 mm 5 mps 738 mmHg 73%
    09:00 +9°C° 0.1 mm 6 mps 738 mmHg 69%
    10:00 +10°C° 0.1 mm 6 mps 739 mmHg 64%
    11:00 +10°C° 0.3 mm 7 mps 739 mmHg 58%
    12:00 +11°C° 0.3 mm 7 mps 740 mmHg 52%
    13:00 +12°C° 0.3 mm 7 mps 740 mmHg 46%
    14:00 +12°C° 0.1 mm 7 mps 741 mmHg 44%
    15:00 +12°C° 0.1 mm 7 mps 741 mmHg 42%
    16:00 +13°C° 0.1 mm 6 mps 741 mmHg 40%
    17:00 +12°C° 0 mm 5 mps 742 mmHg 46%
    18:00 +11°C° 0 mm 4 mps 742 mmHg 52%
    19:00 +10°C° 0 mm 4 mps 743 mmHg 58%
    20:00 +9°C° 0 mm 3 mps 744 mmHg 63%
    21:00 +8°C° 0 mm 3 mps 744 mmHg 69%
    22:00 +8°C° 0 mm 3 mps 745 mmHg 75%
    23:00 +8°C° 0 mm 3 mps 744 mmHg 76%

    27 February, Thursday

    Time Temperature Precipitation Wind Pressure Humidity
    00:00 +8°C° 0 mm 3 mps 744 mmHg 76%
    01:00 +7°C° 0 mm 4 mps 744 mmHg 77%
    02:00 +8°C° 0 mm 3 mps 744 mmHg 78%
    03:00 +9°C° 0 mm 3 mps 744 mmHg 79%
    04:00 +9°C° 0 mm 3 mps 744 mmHg 79%
    05:00 +10°C° 0 mm 3 mps 744 mmHg 75%
    06:00 +11°C° 0 mm 4 mps 744 mmHg 71%
    07:00 +12°C° 0 mm 4 mps 744 mmHg 67%
    08:00 +13°C° 0 mm 4 mps 744 mmHg 64%
    09:00 +14°C° 0 mm 5 mps 743 mmHg 61%
    10:00 +15°C° 0 mm 6 mps 743 mmHg 57%
    11:00 +15°C° 0 mm 6 mps 743 mmHg 57%
    12:00 +16°C° 0 mm 6 mps 742 mmHg 56%
    13:00 +16°C° 0 mm 6 mps 742 mmHg 55%
    14:00 +16°C° 0 mm 5 mps 742 mmHg 58%
    15:00 +16°C° 0 mm 5 mps 741 mmHg 60%
    16:00 +15°C° 0 mm 5 mps 741 mmHg 62%
    17:00 +15°C° 0 mm 4 mps 741 mmHg 67%
    18:00 +14°C° 0 mm 4 mps 742 mmHg 71%
    19:00 +13°C° 0 mm 3 mps 742 mmHg 76%
    20:00 +13°C° 0.1 mm 3 mps 742 mmHg 77%
    21:00 +13°C° 0.1 mm 3 mps 743 mmHg 78%
    22:00 +12°C° 0.1 mm 3 mps 743 mmHg 80%
    23:00 +12°C° 0.1 mm 3 mps 743 mmHg 80%
    Show more